Tampa, FL

12:11 PM EDT on July 21, 2017 (GMT -0400)
Tampa International

Weather History for KTPA - January, 2013

Change the Weather History Date:

Sunday, January 13, 2013

  Actual Average Record
Temperature  
Mean Temperature 73 °F 60 °F  
Max Temperature 79 °F 70 °F 83 °F (1937)
Min Temperature 66 °F 51 °F 22 °F (1981)
Degree Days  
Heating Degree Days 0 6  
Month to date heating degree days 9 78  
Since 1 July heating degree days 135 261  
Cooling Degree Days 8 2  
Month to date cooling degree days 71 26  
Year to date cooling degree days 71 26  
Growing Degree Days 22 (Base 50)    
Moisture  
Dew Point 63 °F    
Average Humidity 71    
Maximum Humidity 87    
Minimum Humidity 54    
Precipitation  
Precipitation 0.00 in 0.07 in 1.57 in (1904)
Month to date precipitation 0.46 0.89  
Year to date precipitation 0.46 0.89  
Sea Level Pressure  
Sea Level Pressure 30.11 in    
Wind  
Wind Speed 4 mph (SSE)    
Max Wind Speed 10 mph    
Max Gust Speed 15 mph    
Visibility 10 miles    
Events      
T = Trace of Precipitation, MM = Missing Value Source: NWS Daily Summary

Daily Weather History Graph

Daily Weather History Graph

Search for Another Location

Airport or City:

Trip Planner

Search our weather history database for the weather conditions in past years. The results will help you decide how hot, cold, wet, or windy it might be!

Date:

Astronomy

Jan. 13, 2013 Rise Set
Actual Time 7:22 AM EST 5:55 PM EST
Civil Twilight 6:57 AM EST 6:20 PM EST
Nautical Twilight 6:28 AM EST 6:49 PM EST
Astronomical Twilight 6:00 AM EST 7:17 PM EST
Moon 8:34 AM EST (1/13) 8:15 PM EST (1/13)
Length of Visible Light 11h 23m
Length of Day
10h 32m
Waxing Crescent, 5% of the Moon is Illuminated
Jan 13
Waxing Crescent
Jan 18
First Quarter
Jan 26
Full
Feb 3
Last Quarter
Feb 10
New

Hourly Weather History & Observations

Time (EST) Temp. Dew Point Humidity Pressure Visibility Wind Dir Wind Speed Gust Speed Precip Events Conditions
12:53 AM 71.1 °F 63.0 °F 75% 30.11 in 10.0 mi SE 6.9 mph - N/A   Scattered Clouds
1:53 AM 71.1 °F 63.0 °F 75% 30.11 in 10.0 mi SE 6.9 mph - N/A   Mostly Cloudy
2:53 AM 70.0 °F 63.0 °F 78% 30.11 in 10.0 mi Variable 6.9 mph - N/A   Mostly Cloudy
3:53 AM 69.1 °F 63.0 °F 81% 30.09 in 10.0 mi SE 5.8 mph - N/A   Scattered Clouds
4:53 AM 68.0 °F 62.1 °F 81% 30.08 in 10.0 mi SE 4.6 mph - N/A   Scattered Clouds
5:53 AM 66.9 °F 62.1 °F 84% 30.08 in 10.0 mi ESE 4.6 mph - N/A   Scattered Clouds
6:53 AM 66.0 °F 62.1 °F 87% 30.09 in 10.0 mi ESE 5.8 mph - N/A   Partly Cloudy
7:53 AM 66.9 °F 62.1 °F 84% 30.09 in 10.0 mi ESE 4.6 mph - N/A   Mostly Cloudy
8:53 AM 70.0 °F 63.0 °F 78% 30.14 in 10.0 mi Variable 4.6 mph - N/A   Mostly Cloudy
9:53 AM 73.0 °F 64.0 °F 73% 30.18 in 10.0 mi SE 5.8 mph - N/A   Mostly Cloudy
10:53 AM 75.9 °F 64.9 °F 69% 30.17 in 10.0 mi Variable 5.8 mph - N/A   Mostly Cloudy
11:53 AM 78.1 °F 64.9 °F 64% 30.14 in 10.0 mi SE 5.8 mph - N/A   Overcast
12:53 PM 77.0 °F 64.9 °F 66% 30.11 in 10.0 mi WSW 5.8 mph - N/A   Overcast
1:53 PM 78.1 °F 64.9 °F 64% 30.09 in 10.0 mi WSW 5.8 mph - N/A   Overcast
2:53 PM 78.1 °F 63.0 °F 60% 30.09 in 10.0 mi WSW 5.8 mph - N/A   Overcast
3:53 PM 78.1 °F 61.0 °F 56% 30.10 in 10.0 mi WSW 3.5 mph - N/A   Overcast
4:53 PM 77.0 °F 62.1 °F 60% 30.10 in 10.0 mi Calm Calm - N/A   Overcast
5:53 PM 73.9 °F 62.1 °F 66% 30.10 in 10.0 mi South 5.8 mph - N/A   Mostly Cloudy
6:53 PM 73.0 °F 64.0 °F 73% 30.10 in 10.0 mi South 3.5 mph - N/A   Scattered Clouds
7:53 PM 72.0 °F 64.0 °F 76% 30.11 in 10.0 mi Calm Calm - N/A   Scattered Clouds
8:53 PM 72.0 °F 63.0 °F 73% 30.10 in 10.0 mi Calm Calm - N/A   Partly Cloudy
9:53 PM 71.1 °F 63.0 °F 75% 30.12 in 10.0 mi Calm Calm - N/A   Clear
10:53 PM 71.1 °F 64.0 °F 78% 30.13 in 10.0 mi ESE 3.5 mph - N/A   Clear
11:53 PM 70.0 °F 64.0 °F 81% 30.14 in 10.0 mi ESE 3.5 mph - N/A   Clear